Flag for U.S.A. Weather past 2 weeks in Santa Cruz, California, U.S.A.

Now
50 °F

Fog.


Feels Like: 49 °F
Forecast: 53 / 67 °F
Wind: 3 mph from East

Location: Watsonville Municipal Airport


UV Index: 0 (Low)

Visibility: 6 mi


Pressure: 29.83 "Hg

Humidity: 96%

Dew point: 49 °F

Location of Santa CruzLocation

Historic Weather in Santa Cruz

°F

Santa Cruz temperature yesterday

Maximum temperature yesterday: 70 °F (at 2:53 PM)
Minimum temperature yesterday: 48 °F (at 4:01 AM)
Average temperature yesterday: 57 °F

Past Weeks' High & Low Weather Summary

 TemperatureHumidityPressure
High80 °F (Apr 7, 12:53 PM)100% (Apr 8, 9:04 PM)30.23 "Hg (Apr 8, 9:04 PM)
Low41 °F (Apr 2, 6:53 AM)36% (Apr 7, 4:53 PM)29.82 "Hg (Apr 17, 2:53 AM)
Average56 °F80%30.04 "Hg
* Reported Apr 2 4:53 AM — Apr 17 4:53 AM, Santa Cruz, Weather by CustomWeather, © 2014

Note: Actual official high and low records may vary slightly from our data, if they occured in-between our weather recording intervals... More about our weather records

Advertising

Historic Weather Conditions — Data for Previous 24 hours

 ConditionsComfort  
Time TempWeatherWind HumidityBarometerVisibility
4:53 AM
Apr 17
51 °FFog.No wind92%29.83 "Hg1 mi
3:53 AM49 °FPassing clouds.No wind90%29.83 "Hg10 mi
2:53 AM50 °FClear.No wind86%29.82 "Hg10 mi
1:53 AM51 °FClear.5 mph86%29.84 "Hg10 mi
12:53 AM51 °FClear.No wind89%29.85 "Hg10 mi
11:53 PM
Apr 16
54 °FClear.No wind80%29.87 "Hg10 mi
10:53 PM54 °FClear.No wind83%29.86 "Hg10 mi
9:53 PM55 °FClear.No wind80%29.86 "Hg10 mi
8:53 PM55 °FClear.7 mph80%29.85 "Hg10 mi
7:53 PM56 °FSunny.8 mph81%29.84 "Hg9 mi
6:53 PM59 °FSunny.7 mph78%29.83 "Hg9 mi
5:53 PM63 °FSunny.10 mph70%29.83 "Hg10 mi
4:53 PM67 °FSunny.6 mph66%29.84 "Hg10 mi
3:53 PM68 °FSunny.6 mph59%29.85 "Hg10 mi
2:53 PM70 °FSunny.8 mph57%29.85 "Hg10 mi
1:53 PM68 °FSunny.6 mph61%29.87 "Hg10 mi
12:53 PM67 °FSunny.6 mph66%29.88 "Hg10 mi
11:53 AM66 °FSunny.No wind61%29.90 "Hg10 mi
10:53 AM61 °FSunny.No wind72%29.92 "Hg10 mi
9:53 AM57 °FPartly sunny.No wind78%29.92 "Hg8 mi
8:53 AM53 °FFog.No wind86%29.93 "Hg6 mi
7:53 AM52 °FFog.No wind89%29.94 "Hg6 mi
6:53 AM51 °FFog.No wind92%29.92 "Hg5 mi
Weather by CustomWeather, © 2014

See weather overview